Tracking 19224 objects as of 22-Jul-2018
HD Live streaming from Space Station
objects crossing your sky now

MOZHAYETS 4

Track MOZHAYETS 4 now!
10-day predictions
MOZHAYETS 4 is classified as:


NORAD ID: 27939
Int'l Code: 2003-042A
Perigee: 669.0 km
Apogee: 688.5 km
Inclination: 98.0 °
Period: 98.2 minutes
Semi major axis: 7049 km
RCS: 0.7646 m2 (medium)
Launch date: September 27, 2003
Source: Commonwealth of Independent States (former USSR) (CIS)
Launch site: PLESETSK MISSILE AND SPACE COMPLEX (PKMTR)
Uplink (MHz):
Downlink (MHz): 432.098/435.352
Beacon (MHz):
Mode:
Call sign:
Status: Active

aabbcc
Your satellite tracking list
Your tracking list is empty




NASA's NSSDC Master Catalog

Two Line Element Set (TLE):
1 27939U 03042A   18203.51422131  .00000042  00000-0  16131-4 0  9994
2 27939  97.9952 341.7453 0013814  41.7919  17.8236 14.66701938791995
Source of the keplerian elements: Caltech